This is the latest recevied weather packets stored in our database for station/object N1OF. If no packets are shown the sender has not sent any weather packets the latest 10 day(s).
| Time | Temp. | Humidity | Pressure | Rain* | Wind** | Luminosity | Snow |
|---|---|---|---|---|---|---|---|
| 1777847247 | 13.33° C | 56% | 1013.4 hPa | 0 mm | - | - | - |
| 1777846945 | 13.33° C | 58% | 1013.4 hPa | 0 mm | - | - | - |
| 1777846643 | 13.89° C | 57% | 1013.3 hPa | 0 mm | - | - | - |
| 1777846341 | 14.44° C | 54% | 1013 hPa | 0 mm | - | - | - |
| 1777846037 | 15.56° C | 37% | 1013.1 hPa | 0 mm | - | - | - |
| 1777845734 | 15.56° C | 38% | 1012.8 hPa | 0 mm | - | - | - |
| 1777845430 | 15.56° C | 37% | 1012.9 hPa | 0 mm | - | - | - |
| 1777845128 | 16.11° C | 36% | 1012.9 hPa | 0 mm | - | - | - |
| 1777844826 | 16.11° C | 37% | 1012.8 hPa | 0 mm | - | - | - |
| 1777844522 | 16.11° C | 36% | 1012.9 hPa | 0 mm | - | - | - |
| 1777844221 | 16.11° C | 36% | 1013 hPa | 0 mm | - | - | - |
| 1777843917 | 16.11° C | 36% | 1013 hPa | 0 mm | - | - | - |
| 1777843614 | 16.11° C | 37% | 1013 hPa | 0 mm | - | - | - |
| 1777843312 | 16.11° C | 37% | 1012.8 hPa | 0 mm | - | - | - |
| 1777843010 | 16.11° C | 37% | 1012.8 hPa | 0 mm | - | - | - |
| 1777842705 | 16.11° C | 37% | 1013.1 hPa | 0 mm | - | - | - |
| 1777842401 | 16.11° C | 37% | 1013.1 hPa | 0 mm | - | - | - |
| 1777842098 | 16.11° C | 36% | 1013.1 hPa | 0 mm | - | - | - |
| 1777841794 | 16.11° C | 36% | 1013.1 hPa | 0 mm | - | - | - |
| 1777841490 | 16.11° C | 36% | 1013.2 hPa | 0 mm | - | - | - |
| 1777841181 | 16.11° C | 36% | 1013.3 hPa | 0 mm | - | - | - |
| 1777840879 | 16.11° C | 36% | 1013.2 hPa | 0 mm | - | - | - |
| 1777840576 | 16.67° C | 36% | 1013.4 hPa | 0 mm | - | - | - |
| 1777840273 | 16.67° C | 35% | 1013.3 hPa | 0 mm | - | - | - |
| 1777839971 | 16.67° C | 34% | 1013.5 hPa | 0 mm | - | - | - |
* Rain latest hour (hover to see other rain measurements)
** Current wind speed in m/s (hover to see current wind gust speed)